Weather History for Blacksburg, VA

Change the Weather History Date:

Tuesday, May 7, 2013

  Actual Average Record
Temperature  
Mean Temperature 52 °F 57 °F  
Max Temperature 59 °F 69 °F 85 °F (1959)
Min Temperature 44 °F 44 °F 24 °F (1968)
Degree Days  
Heating Degree Days 13 8  
Month to date heating degree days 85 64  
Since 1 July heating degree days 5226 5269  
Cooling Degree Days 0 0  
Month to date cooling degree days 0 0  
Year to date cooling degree days 0 3  
Growing Degree Days 3 (Base 50)    
Moisture  
Dew Point 54 °F    
Average Humidity 90    
Maximum Humidity 100    
Minimum Humidity 80    
Precipitation  
Precipitation 0.83 in 0.12 in 1.35 in (1971)
Month to date precipitation 2.17 0.86  
Year to date precipitation 18.21 13.87  
Snow  
Snow 0.00 in - - ()
Month to date snowfall 0.0  
Since 1 July snowfall 27.9  
Snow Depth 0.00 in    
Sea Level Pressure  
Sea Level Pressure 29.94 in    
Wind  
Wind Speed 3 mph (NE)    
Max Wind Speed 13 mph    
Max Gust Speed 17 mph    
Visibility 8 miles    
Events Fog , Rain , Thunderstorm    
T = Trace of Precipitation, MM = Missing Value Source: NWS Daily Summary

Daily Weather History Graph

Daily Weather History Graph

Search for Another Location

Airport:

Trip Planner

Search our weather history database for the weather conditions in past years. The results will help you decide how hot, cold, wet, or windy it might be!

Date:

Astronomy

May. 07, 2013 Rise Set
Actual Time 6:20 AM EDT 8:16 PM EDT
Civil Twilight 5:51 AM EDT 8:45 PM EDT
Nautical Twilight 5:17 AM EDT 9:19 PM EDT
Astronomical Twilight 4:40 AM EDT 9:57 PM EDT
Moon 4:50 AM EDT (5/7) 6:17 PM EDT (5/7)
Length of Visible Light 14h 53m
Length of Day
13h 56m
Waning Crescent, 5% of the Moon is Illuminated
May 7
Waning Crescent
May 9
New
May 18
First Quarter
May 25
Full
May 31
Last Quarter

Hourly Weather History & Observations

Time (EDT) Temp. Dew Point Humidity Pressure Visibility Wind Dir Wind Speed Gust Speed Precip Events Conditions
12:15 AM 55.4 °F 55.4 °F 100% 29.95 in 1.0 mi East 6.9 mph - N/A Rain Rain
12:35 AM 55.4 °F 55.4 °F 100% 29.96 in 1.0 mi East 8.1 mph - 0.03 in Rain Rain
12:55 AM 55.4 °F 55.4 °F 100% 29.96 in 10.0 mi East 4.6 mph - 0.07 in Rain Rain
1:15 AM 55.4 °F 55.4 °F 100% 29.95 in 10.0 mi Calm Calm - 0.03 in Rain Rain
1:35 AM 55.4 °F 55.4 °F 100% 29.95 in 10.0 mi East 3.5 mph - 0.04 in Rain Light Rain
1:55 AM 55.4 °F 55.4 °F 100% 29.95 in 10.0 mi East 4.6 mph - 0.05 in Rain Light Rain
2:15 AM 55.4 °F 55.4 °F 100% 29.95 in 10.0 mi East 8.1 mph - 0.01 in Rain Rain
2:35 AM 55.4 °F 55.4 °F 100% 29.94 in 10.0 mi Calm Calm - 0.01 in Rain Rain
2:55 AM 55.4 °F 55.4 °F 100% 29.94 in 10.0 mi Calm Calm - 0.01 in   Overcast
3:15 AM 55.4 °F 55.4 °F 100% 29.93 in 10.0 mi East 3.5 mph - N/A   Overcast
3:35 AM 55.4 °F 55.4 °F 100% 29.93 in 10.0 mi ENE 4.6 mph - 0.01 in   Overcast
3:55 AM 55.4 °F 55.4 °F 100% 29.93 in 10.0 mi East 4.6 mph - 0.01 in   Overcast
4:15 AM 55.4 °F 55.4 °F 100% 29.93 in 10.0 mi ENE 3.5 mph - N/A   Overcast
4:35 AM 55.4 °F 55.4 °F 100% 29.93 in 10.0 mi ENE 5.8 mph - N/A   Overcast
4:55 AM 55.4 °F 55.4 °F 100% 29.93 in 10.0 mi NE 5.8 mph - N/A   Overcast
5:15 AM 55.4 °F 55.4 °F 100% 29.92 in 10.0 mi ENE 5.8 mph - N/A   Mostly Cloudy
5:35 AM 55.4 °F 55.4 °F 100% 29.92 in 10.0 mi ENE 3.5 mph - N/A   Mostly Cloudy
6:15 AM 55.4 °F 55.4 °F 100% 29.93 in 10.0 mi ENE 3.5 mph - N/A   Overcast
6:35 AM 55.4 °F 55.4 °F 100% 29.93 in 10.0 mi Calm Calm - N/A   Overcast
6:55 AM 55.4 °F 55.4 °F 100% 29.93 in 10.0 mi Calm Calm - N/A Thunderstorm Mostly Cloudy
7:15 AM 53.6 °F 53.6 °F 100% 29.93 in 10.0 mi Calm Calm - N/A   Mostly Cloudy
7:35 AM 53.6 °F 53.6 °F 100% 29.93 in 10.0 mi NNE 3.5 mph - N/A   Scattered Clouds
7:55 AM 53.6 °F 53.6 °F 100% 29.93 in 3.0 mi Calm Calm - N/A   Clear
8:15 AM 53.6 °F 53.6 °F 100% 29.93 in 4.0 mi Calm Calm - N/A   Clear
8:35 AM 53.6 °F 53.6 °F 100% 29.94 in 5.0 mi NNE 3.5 mph - N/A   Scattered Clouds
8:55 AM 55.4 °F 55.4 °F 100% 29.94 in 10.0 mi NNE 3.5 mph - N/A Thunderstorm Scattered Clouds
9:15 AM 55.4 °F 55.4 °F 100% 29.94 in 10.0 mi Calm Calm - N/A   Overcast
9:35 AM 55.4 °F 55.4 °F 100% 29.94 in 7.0 mi Calm Calm - N/A Rain , Thunderstorm Light Thunderstorms and Rain
9:55 AM 55.4 °F 55.4 °F 100% 29.94 in 5.0 mi Calm Calm - 0.02 in Rain Light Rain
10:15 AM 55.4 °F 55.4 °F 100% 29.95 in 5.0 mi Calm Calm - N/A Rain Light Rain
10:35 AM 55.4 °F 55.4 °F 100% 29.95 in 7.0 mi Calm Calm - N/A   Overcast
10:55 AM 55.4 °F 55.4 °F 100% 29.95 in 7.0 mi Calm Calm - N/A   Overcast
11:15 AM 55.4 °F 55.4 °F 100% 29.95 in 7.0 mi WNW 3.5 mph - N/A Rain Light Rain
11:35 AM 55.4 °F 55.4 °F 100% 29.95 in 1.2 mi NW 11.5 mph - 0.20 in Rain Heavy Rain
11:55 AM 53.6 °F 53.6 °F 100% 29.95 in 5.0 mi North 4.6 mph 17.3 mph 0.45 in Rain , Thunderstorm Heavy Thunderstorms and Rain
12:15 PM 55.4 °F 55.4 °F 100% 29.96 in 7.0 mi Calm Calm - 0.02 in Rain Light Rain
12:35 PM 53.6 °F 53.6 °F 100% 29.96 in 7.0 mi West 3.5 mph - 0.07 in Rain Rain
12:55 PM 53.6 °F 53.6 °F 100% 29.97 in 3.0 mi WNW 3.5 mph - 0.17 in Rain Heavy Rain
1:15 PM 53.6 °F 53.6 °F 100% 29.96 in 10.0 mi NW 8.1 mph - 0.05 in Rain Rain
1:35 PM 53.6 °F 53.6 °F 100% 29.96 in 10.0 mi NNW 9.2 mph - 0.10 in Rain Rain
1:55 PM 53.6 °F 53.6 °F 100% 29.94 in 10.0 mi NNW 12.7 mph 16.1 mph 0.14 in Rain Rain
2:15 PM 53.6 °F 53.6 °F 100% 29.95 in 10.0 mi NNW 9.2 mph - N/A Rain Light Rain
2:35 PM 53.6 °F 53.6 °F 100% 29.94 in 10.0 mi NNW 5.8 mph - 0.01 in Rain , Thunderstorm Light Thunderstorms and Rain
2:55 PM 53.6 °F 53.6 °F 100% 29.94 in 10.0 mi North 3.5 mph - 0.01 in Thunderstorm Thunderstorm
3:15 PM 55.4 °F 53.6 °F 94% 29.93 in 10.0 mi NNW 4.6 mph - N/A Thunderstorm Scattered Clouds
3:35 PM 55.4 °F 53.6 °F 94% 29.93 in 10.0 mi Calm Calm - N/A Thunderstorm Clear
3:55 PM 57.2 °F 53.6 °F 88% 29.94 in 10.0 mi East 8.1 mph - N/A   Mostly Cloudy
4:15 PM 57.2 °F 53.6 °F 88% 29.93 in 10.0 mi ENE 5.8 mph - N/A   Mostly Cloudy
4:35 PM 57.2 °F 53.6 °F 88% 29.92 in 10.0 mi East 4.6 mph - N/A Thunderstorm Scattered Clouds
4:55 PM 59.0 °F 55.4 °F 88% 29.92 in 10.0 mi ESE 3.5 mph - N/A Thunderstorm Scattered Clouds
5:15 PM 60.8 °F 53.6 °F 77% 29.93 in 10.0 mi NE 8.1 mph - N/A Thunderstorm Mostly Cloudy
5:35 PM 57.2 °F 53.6 °F 88% 29.93 in 10.0 mi NE 3.5 mph - N/A   Scattered Clouds
5:55 PM 59.0 °F 53.6 °F 82% 29.93 in 10.0 mi Calm Calm - N/A   Clear
6:15 PM 59.0 °F 53.6 °F 82% 29.93 in 10.0 mi East 6.9 mph - N/A   Mostly Cloudy
6:35 PM 59.0 °F 53.6 °F 82% 29.94 in 10.0 mi ENE 3.5 mph - N/A   Mostly Cloudy
6:55 PM 59.0 °F 53.6 °F 82% 29.95 in 10.0 mi East 4.6 mph - N/A   Overcast
7:15 PM 57.2 °F 53.6 °F 88% 29.97 in 10.0 mi SSE 9.2 mph - N/A   Overcast
7:55 PM 53.6 °F 53.6 °F 100% 29.93 in 10.0 mi NW 5.8 mph - 0.09 in Rain Rain
8:15 PM 53.6 °F 53.6 °F 100% 29.94 in 10.0 mi Calm Calm - N/A   Light Drizzle
8:35 PM 53.6 °F 53.6 °F 100% 29.94 in 10.0 mi Calm Calm - N/A   Mostly Cloudy
8:55 PM 51.8 °F 51.8 °F 100% 29.95 in 10.0 mi SSE 4.6 mph - N/A   Mostly Cloudy
9:15 PM 51.8 °F 51.8 °F 100% 29.96 in 10.0 mi Calm Calm - N/A   Mostly Cloudy
9:35 PM 51.8 °F 51.8 °F 100% 29.96 in 5.0 mi Calm Calm - N/A   Scattered Clouds
9:55 PM 48.2 °F 48.2 °F 100% 29.97 in 1.0 mi Calm Calm - 0.01 in   Mist
10:15 PM 48.2 °F 48.2 °F 100% 29.98 in 0.5 mi Calm Calm - N/A Fog Fog
10:35 PM 48.2 °F 48.2 °F 100% 29.98 in 1.2 mi Calm Calm - N/A   Mist
10:55 PM 46.4 °F 46.4 °F 100% 29.97 in 1.5 mi Calm Calm - N/A   Mist
11:15 PM 46.4 °F 46.4 °F 100% 29.97 in 0.2 mi Calm Calm - N/A Fog Fog
11:35 PM 46.4 °F 46.4 °F 100% 29.97 in 0.8 mi Calm Calm - N/A   Overcast
11:55 PM 46.4 °F 46.4 °F 100% 29.97 in 0.5 mi Calm Calm - N/A Fog Fog